Tracking 19475 objects as of 18-Jan-2019
HD Live streaming from Space Station
objects crossing your sky now

XY S 1

Track XY S 1 now!
10-day predictions


NORAD ID: 41913
Int'l Code: 2017-002A
Perigee: 532.6 km
Apogee: 548.1 km
Inclination: 97.5 °
Period: 95.3 minutes
Semi major axis: 6911 km
RCS: Unknown
Launch date: January 9, 2017
Source: People's Republic of China (PRC)
Launch site: Jiuquan Satellite Launch Center, China (JSC)
aabbcc
Your satellite tracking list
Your tracking list is empty




NASA's NSSDC Master Catalog

Two Line Element Set (TLE):
1 41913U 17002A   19018.49353653  .00000400  00000-0  27730-4 0  9992
2 41913  97.4617  90.3810 0011237 251.3039 233.6680 15.10980738111588
Source of the keplerian elements: AFSPC